Location: Township of Marena
(38.1747°N, 99.6798°W)
Time: 02:10:28
(UTC+00:00)

Cosmos 1726 Rocket - Pass Details

Date: 26 October 2020
Orbit: 604 x 629 km, 82.5° (Epoch: 24 November)

Event Time Altitude Azimuth Distance (km) Brightness Sun altitude
Rises 00:20:56 0° 177° (S) 2,846 7.1 -7.4°
Reaches altitude 10° 00:23:09 10° 174° (S) 1,950 6.2 -7.8°
Maximum altitude 00:27:23 61° 94° (E) 697 3.5 -8.6°
Drops below altitude 10° 00:31:42 10° 15° (NNE) 1,978 5.9 -9.5°
Sets 00:33:57 0° 12° (NNE) 2,892 6.8 -9.9°
